Year,Month,Day,Hour,Minute,Value (Times are PST for temperature in C)
2008,09,23,00,00,10.70
2008,09,23,00,01,10.70
2008,09,23,00,02,10.70
2008,09,23,00,03,10.70
2008,09,23,00,04,10.70
2008,09,23,00,05,10.60
2008,09,23,00,06,10.50
2008,09,23,00,07,10.40
2008,09,23,00,08,10.40
2008,09,23,00,09,10.30
2008,09,23,00,10,10.30
2008,09,23,00,11,10.30
2008,09,23,00,12,10.20
2008,09,23,00,13,10.20
2008,09,23,00,14,10.10
2008,09,23,00,15,10.10
2008,09,23,00,16,10.00
2008,09,23,00,17,10.00
2008,09,23,00,18,9.90
2008,09,23,00,19,9.80
2008,09,23,00,20,9.70
2008,09,23,00,21,9.70
2008,09,23,00,22,9.60
2008,09,23,00,23,9.60
2008,09,23,00,24,9.50
2008,09,23,00,25,9.40
2008,09,23,00,26,9.40
2008,09,23,00,27,9.30
2008,09,23,00,28,9.30
2008,09,23,00,29,9.20
2008,09,23,00,30,9.20
2008,09,23,00,31,9.20
2008,09,23,00,32,9.10
2008,09,23,00,33,9.10
2008,09,23,00,34,9.00
2008,09,23,00,35,9.00
2008,09,23,00,36,8.90
2008,09,23,00,37,8.90
2008,09,23,00,38,8.80
2008,09,23,00,39,8.80
2008,09,23,00,40,8.80
2008,09,23,00,41,8.80
2008,09,23,00,42,8.70
2008,09,23,00,43,8.70
2008,09,23,00,44,8.70
2008,09,23,00,45,8.60
2008,09,23,00,46,8.60
2008,09,23,00,47,8.60
2008,09,23,00,48,8.50
2008,09,23,00,49,8.50
2008,09,23,00,50,8.40
2008,09,23,00,51,8.40
2008,09,23,00,52,8.40
2008,09,23,00,53,8.30
2008,09,23,00,54,8.30
2008,09,23,00,55,8.30
2008,09,23,00,56,8.30
2008,09,23,00,57,8.20
2008,09,23,00,58,8.20
2008,09,23,00,59,8.20
2008,09,23,01,00,8.20
2008,09,23,01,01,8.10
2008,09,23,01,02,8.10
2008,09,23,01,03,8.10
2008,09,23,01,04,8.00
2008,09,23,01,05,8.00
2008,09,23,01,06,8.00
2008,09,23,01,07,8.00
2008,09,23,01,08,8.00
2008,09,23,01,09,8.00
2008,09,23,01,10,8.00
2008,09,23,01,11,7.90
2008,09,23,01,12,7.90
2008,09,23,01,13,7.90
2008,09,23,01,14,7.90
2008,09,23,01,15,7.90
2008,09,23,01,16,7.90
2008,09,23,01,17,7.90
2008,09,23,01,18,7.80
2008,09,23,01,19,7.80
2008,09,23,01,20,7.80
2008,09,23,01,21,7.80
2008,09,23,01,22,7.70
2008,09,23,01,23,7.70
2008,09,23,01,24,7.70
2008,09,23,01,25,7.60
2008,09,23,01,26,7.60
2008,09,23,01,27,7.60
2008,09,23,01,28,7.60
2008,09,23,01,29,7.50
2008,09,23,01,30,7.50
2008,09,23,01,31,7.50
2008,09,23,01,32,7.40
2008,09,23,01,33,7.40
2008,09,23,01,34,7.40
2008,09,23,01,35,7.30
2008,09,23,01,36,7.30
2008,09,23,01,37,7.30
2008,09,23,01,38,7.30
2008,09,23,01,39,7.30
2008,09,23,01,40,7.20
2008,09,23,01,41,7.20
2008,09,23,01,42,7.20
2008,09,23,01,43,7.20
2008,09,23,01,44,7.20
2008,09,23,01,45,7.10
2008,09,23,01,46,7.10
2008,09,23,01,47,7.10
2008,09,23,01,48,7.00
2008,09,23,01,49,7.00
2008,09,23,01,50,7.00
2008,09,23,01,51,6.90
2008,09,23,01,52,6.90
2008,09,23,01,53,6.90
2008,09,23,01,54,6.90
2008,09,23,01,55,6.90
2008,09,23,01,56,6.80
2008,09,23,01,57,6.80
2008,09,23,01,58,6.80
2008,09,23,01,59,6.80
2008,09,23,02,00,6.80
2008,09,23,02,01,6.80
2008,09,23,02,02,6.80
2008,09,23,02,03,6.70
2008,09,23,02,04,6.70
2008,09,23,02,05,6.70
2008,09,23,02,06,6.70
2008,09,23,02,07,6.70
2008,09,23,02,08,6.60
2008,09,23,02,09,6.60
2008,09,23,02,10,6.60
2008,09,23,02,11,6.60
2008,09,23,02,12,6.60
2008,09,23,02,13,6.60
2008,09,23,02,14,6.60
2008,09,23,02,15,6.60
2008,09,23,02,16,6.60
2008,09,23,02,17,6.60
2008,09,23,02,18,6.50
2008,09,23,02,19,6.50
2008,09,23,02,20,6.50
2008,09,23,02,21,6.50
2008,09,23,02,22,6.50
2008,09,23,02,23,6.40
2008,09,23,02,24,6.40
2008,09,23,02,25,6.40
2008,09,23,02,26,6.40
2008,09,23,02,27,6.40
2008,09,23,02,28,6.40
2008,09,23,02,29,6.30
2008,09,23,02,30,6.30
2008,09,23,02,31,6.30
2008,09,23,02,32,6.30
2008,09,23,02,33,6.30
2008,09,23,02,34,6.30
2008,09,23,02,35,6.30
2008,09,23,02,36,6.20
2008,09,23,02,37,6.20
2008,09,23,02,38,6.20
2008,09,23,02,39,6.20
2008,09,23,02,40,6.20
2008,09,23,02,41,6.20
2008,09,23,02,42,6.20
2008,09,23,02,43,6.20
2008,09,23,02,44,6.10
2008,09,23,02,45,6.10
2008,09,23,02,46,6.10
2008,09,23,02,47,6.10
2008,09,23,02,48,6.10
2008,09,23,02,49,6.10
2008,09,23,02,50,6.10
2008,09,23,02,51,6.10
2008,09,23,02,52,6.00
2008,09,23,02,53,6.00
2008,09,23,02,54,6.00
2008,09,23,02,55,6.00
2008,09,23,02,56,6.00
2008,09,23,02,57,6.00
2008,09,23,02,58,6.00
2008,09,23,02,59,6.00
2008,09,23,03,00,5.90
2008,09,23,03,01,5.90
2008,09,23,03,02,5.90
2008,09,23,03,03,5.90
2008,09,23,03,04,5.90
2008,09,23,03,05,6.00
2008,09,23,03,06,6.00
2008,09,23,03,07,6.00
2008,09,23,03,08,6.00
2008,09,23,03,09,6.00
2008,09,23,03,10,5.90
2008,09,23,03,11,5.90
2008,09,23,03,12,6.00
2008,09,23,03,13,5.90
2008,09,23,03,14,5.90
2008,09,23,03,15,5.90
2008,09,23,03,16,5.90
2008,09,23,03,17,5.90
2008,09,23,03,18,5.90
2008,09,23,03,19,5.90
2008,09,23,03,20,5.90
2008,09,23,03,21,5.90
2008,09,23,03,22,5.90
2008,09,23,03,23,5.80
2008,09,23,03,24,5.80
2008,09,23,03,25,5.80
2008,09,23,03,26,5.80
2008,09,23,03,27,5.80
2008,09,23,03,28,5.80
2008,09,23,03,29,5.70
2008,09,23,03,30,5.70
2008,09,23,03,31,5.70
2008,09,23,03,32,5.70
2008,09,23,03,33,5.70
2008,09,23,03,34,5.70
2008,09,23,03,35,5.70
2008,09,23,03,36,5.70
2008,09,23,03,37,5.70
2008,09,23,03,38,5.70
2008,09,23,03,39,5.60
2008,09,23,03,40,5.60
2008,09,23,03,41,5.60
2008,09,23,03,42,5.60
2008,09,23,03,43,5.60
2008,09,23,03,44,5.60
2008,09,23,03,45,5.60
2008,09,23,03,46,5.60
2008,09,23,03,47,5.60
2008,09,23,03,48,5.60
2008,09,23,03,49,5.50
2008,09,23,03,50,5.50
2008,09,23,03,51,5.50
2008,09,23,03,52,5.50
2008,09,23,03,53,5.40
2008,09,23,03,54,5.40
2008,09,23,03,55,5.40
2008,09,23,03,56,5.40
2008,09,23,03,57,5.40
2008,09,23,03,58,5.40
2008,09,23,03,59,5.40
2008,09,23,04,00,5.40
2008,09,23,04,01,5.40
2008,09,23,04,02,5.40
2008,09,23,04,03,5.30
2008,09,23,04,04,5.30
2008,09,23,04,05,5.30
2008,09,23,04,06,5.30
2008,09,23,04,07,5.30
2008,09,23,04,08,5.30
2008,09,23,04,09,5.30
2008,09,23,04,10,5.30
2008,09,23,04,11,5.30
2008,09,23,04,12,5.30
2008,09,23,04,13,5.30
2008,09,23,04,14,5.30
2008,09,23,04,15,5.30
2008,09,23,04,16,5.30
2008,09,23,04,17,5.30
2008,09,23,04,18,5.30
2008,09,23,04,19,5.30
2008,09,23,04,20,5.30
2008,09,23,04,21,5.30
2008,09,23,04,22,5.30
2008,09,23,04,23,5.30
2008,09,23,04,24,5.30
2008,09,23,04,25,5.30
2008,09,23,04,26,5.30
2008,09,23,04,27,5.30
2008,09,23,04,28,5.30
2008,09,23,04,29,5.40
2008,09,23,04,30,5.40
2008,09,23,04,31,5.40
2008,09,23,04,32,5.40
2008,09,23,04,33,5.40
2008,09,23,04,34,5.40
2008,09,23,04,35,5.40
2008,09,23,04,36,5.40
2008,09,23,04,37,5.40
2008,09,23,04,38,5.40
2008,09,23,04,39,5.30
2008,09,23,04,40,5.30
2008,09,23,04,41,5.30
2008,09,23,04,42,5.30
2008,09,23,04,43,5.30
2008,09,23,04,44,5.30
2008,09,23,04,45,5.30
2008,09,23,04,46,5.30
2008,09,23,04,47,5.30
2008,09,23,04,48,5.30
2008,09,23,04,49,5.30
2008,09,23,04,50,5.30
2008,09,23,04,51,5.30
2008,09,23,04,52,5.30
2008,09,23,04,53,5.30
2008,09,23,04,54,5.30
2008,09,23,04,55,5.30
2008,09,23,04,56,5.30
2008,09,23,04,57,5.30
2008,09,23,04,58,5.40
2008,09,23,04,59,5.40
2008,09,23,05,00,5.40
2008,09,23,05,01,5.40
2008,09,23,05,02,5.40
2008,09,23,05,03,5.40
2008,09,23,05,04,5.40
2008,09,23,05,05,5.40
2008,09,23,05,06,5.40
2008,09,23,05,07,5.30
2008,09,23,05,08,5.30
2008,09,23,05,09,5.30
2008,09,23,05,10,5.30
2008,09,23,05,11,5.30
2008,09,23,05,12,5.30
2008,09,23,05,13,5.30
2008,09,23,05,14,5.30
2008,09,23,05,15,5.30
2008,09,23,05,16,5.30
2008,09,23,05,17,5.30
2008,09,23,05,18,5.30
2008,09,23,05,19,5.30
2008,09,23,05,20,5.30
2008,09,23,05,21,5.30
2008,09,23,05,22,5.30
2008,09,23,05,23,5.30
2008,09,23,05,24,5.30
2008,09,23,05,25,5.30
2008,09,23,05,26,5.30
2008,09,23,05,27,5.30
2008,09,23,05,28,5.30
2008,09,23,05,29,5.30
2008,09,23,05,30,5.30
2008,09,23,05,31,5.30
2008,09,23,05,32,5.20
2008,09,23,05,33,5.20
2008,09,23,05,34,5.20
2008,09,23,05,35,5.20
2008,09,23,05,36,5.20
2008,09,23,05,37,5.20
2008,09,23,05,38,5.20
2008,09,23,05,39,5.20
2008,09,23,05,40,5.20
2008,09,23,05,41,5.20
2008,09,23,05,42,5.20
2008,09,23,05,43,5.10
2008,09,23,05,44,5.10
2008,09,23,05,45,5.10
2008,09,23,05,46,5.10
2008,09,23,05,47,5.10
2008,09,23,05,48,5.10
2008,09,23,05,49,5.10
2008,09,23,05,50,5.10
2008,09,23,05,51,5.10
2008,09,23,05,52,5.10
2008,09,23,05,53,5.10
2008,09,23,05,54,5.10
2008,09,23,05,55,5.00
2008,09,23,05,56,5.00
2008,09,23,05,57,5.00
2008,09,23,05,58,5.00
2008,09,23,05,59,5.00
2008,09,23,06,00,5.00
2008,09,23,06,01,5.00
2008,09,23,06,02,5.00
2008,09,23,06,03,5.00
2008,09,23,06,04,5.00
2008,09,23,06,05,5.00
2008,09,23,06,06,5.00
2008,09,23,06,07,5.00
2008,09,23,06,08,5.00
2008,09,23,06,09,5.00
2008,09,23,06,10,5.00
2008,09,23,06,11,5.00
2008,09,23,06,12,5.00
2008,09,23,06,13,4.90
2008,09,23,06,14,4.90
2008,09,23,06,15,4.90
2008,09,23,06,16,4.90
2008,09,23,06,17,4.90
2008,09,23,06,18,4.90
2008,09,23,06,19,4.90
2008,09,23,06,20,4.90
2008,09,23,06,21,4.90
2008,09,23,06,22,4.90
2008,09,23,06,23,4.90
2008,09,23,06,24,4.90
2008,09,23,06,25,4.90
2008,09,23,06,26,4.90
2008,09,23,06,27,4.90
2008,09,23,06,28,4.90
2008,09,23,06,29,4.90
2008,09,23,06,30,4.90
2008,09,23,06,31,4.90
2008,09,23,06,32,4.80
2008,09,23,06,33,4.80
2008,09,23,06,34,4.80
2008,09,23,06,35,4.80
2008,09,23,06,36,4.80
2008,09,23,06,37,4.80
2008,09,23,06,38,4.80
2008,09,23,06,39,4.90
2008,09,23,06,40,4.90
2008,09,23,06,41,4.90
2008,09,23,06,42,4.90
2008,09,23,06,43,4.80
2008,09,23,06,44,4.80
2008,09,23,06,45,4.80
2008,09,23,06,46,4.80
2008,09,23,06,47,4.80
2008,09,23,06,48,4.80
2008,09,23,06,49,4.80
2008,09,23,06,50,4.80
2008,09,23,06,51,4.80
2008,09,23,06,52,4.80
2008,09,23,06,53,4.80
2008,09,23,06,54,4.80
2008,09,23,06,55,4.80
2008,09,23,06,56,4.80
2008,09,23,06,57,4.80
2008,09,23,06,58,4.80
2008,09,23,06,59,4.80
2008,09,23,07,00,4.80
2008,09,23,07,01,4.80
2008,09,23,07,02,4.80
2008,09,23,07,03,4.80
2008,09,23,07,04,4.80
2008,09,23,07,05,4.80
2008,09,23,07,06,4.80
2008,09,23,07,07,4.80
2008,09,23,07,08,4.80
2008,09,23,07,09,4.80
2008,09,23,07,10,4.80
2008,09,23,07,11,4.80
2008,09,23,07,12,4.80
2008,09,23,07,13,4.80
2008,09,23,07,14,4.80
2008,09,23,07,15,4.80
2008,09,23,07,16,4.80
2008,09,23,07,17,4.80
2008,09,23,07,18,4.80
2008,09,23,07,19,4.80
2008,09,23,07,20,4.80
2008,09,23,07,21,4.80
2008,09,23,07,22,4.80
2008,09,23,07,23,4.90
2008,09,23,07,24,4.90
2008,09,23,07,25,4.90
2008,09,23,07,26,5.00
2008,09,23,07,27,5.00
2008,09,23,07,28,5.10
2008,09,23,07,29,5.10
2008,09,23,07,30,5.10
2008,09,23,07,31,5.10
2008,09,23,07,32,5.10
2008,09,23,07,33,5.10
2008,09,23,07,34,5.10
2008,09,23,07,35,5.10
2008,09,23,07,36,5.10
2008,09,23,07,37,5.20
2008,09,23,07,38,5.20
2008,09,23,07,39,5.20
2008,09,23,07,40,5.20
2008,09,23,07,41,5.20
2008,09,23,07,42,5.20
2008,09,23,07,43,5.20
2008,09,23,07,44,5.20
2008,09,23,07,45,5.20
2008,09,23,07,46,5.30
2008,09,23,07,47,5.30
2008,09,23,07,48,5.30
2008,09,23,07,49,5.30
2008,09,23,07,50,5.30
2008,09,23,07,51,5.30
2008,09,23,07,52,5.30
2008,09,23,07,53,5.30
2008,09,23,07,54,5.30
2008,09,23,07,55,5.30
2008,09,23,07,56,5.40
2008,09,23,07,57,5.40
2008,09,23,07,58,5.40
2008,09,23,07,59,5.40
2008,09,23,08,00,5.40
2008,09,23,08,01,5.40
2008,09,23,08,02,5.40
2008,09,23,08,03,5.50
2008,09,23,08,04,5.50
2008,09,23,08,05,5.50
2008,09,23,08,06,5.60
2008,09,23,08,07,5.60
2008,09,23,08,08,5.70
2008,09,23,08,09,5.70
2008,09,23,08,10,5.80
2008,09,23,08,11,5.80
2008,09,23,08,12,5.90
2008,09,23,08,13,6.00
2008,09,23,08,14,6.00
2008,09,23,08,15,6.10
2008,09,23,08,16,6.20
2008,09,23,08,17,6.20
2008,09,23,08,18,6.30
2008,09,23,08,19,6.30
2008,09,23,08,20,6.40
2008,09,23,08,21,6.40
2008,09,23,08,22,6.50
2008,09,23,08,23,6.60
2008,09,23,08,24,6.60
2008,09,23,08,25,6.70
2008,09,23,08,26,6.80
2008,09,23,08,27,6.90
2008,09,23,08,28,6.90
2008,09,23,08,29,7.00
2008,09,23,08,30,7.10
2008,09,23,08,31,7.20
2008,09,23,08,32,7.20
2008,09,23,08,33,7.30
2008,09,23,08,34,7.40
2008,09,23,08,35,7.50
2008,09,23,08,36,7.60
2008,09,23,08,37,7.60
2008,09,23,08,38,7.70
2008,09,23,08,39,7.80
2008,09,23,08,40,8.00
2008,09,23,08,41,8.20
2008,09,23,08,42,8.30
2008,09,23,08,43,8.50
2008,09,23,08,44,8.60
2008,09,23,08,45,8.70
2008,09,23,08,46,8.80
2008,09,23,08,47,8.90
2008,09,23,08,48,9.00
2008,09,23,08,49,9.10
2008,09,23,08,50,9.20
2008,09,23,08,51,9.20
2008,09,23,08,52,9.30
2008,09,23,08,53,9.30
2008,09,23,08,54,9.40
2008,09,23,08,55,9.40
2008,09,23,08,56,9.50
2008,09,23,08,57,9.60
2008,09,23,08,58,9.60
2008,09,23,08,59,9.60
2008,09,23,09,00,9.70
2008,09,23,09,01,9.80
2008,09,23,09,02,9.90
2008,09,23,09,03,9.90
2008,09,23,09,04,9.90
2008,09,23,09,05,10.00
2008,09,23,09,06,10.00
2008,09,23,09,07,10.00
2008,09,23,09,08,10.00
2008,09,23,09,09,10.00
2008,09,23,09,10,10.00
2008,09,23,09,11,10.00
2008,09,23,09,12,10.10
2008,09,23,09,13,10.10
2008,09,23,09,14,10.20
2008,09,23,09,15,10.20
2008,09,23,09,16,10.20
2008,09,23,09,17,10.30
2008,09,23,09,18,10.40
2008,09,23,09,19,10.40
2008,09,23,09,20,10.50
2008,09,23,09,21,10.60
2008,09,23,09,22,10.70
2008,09,23,09,23,10.80
2008,09,23,09,24,10.90
2008,09,23,09,25,11.00
2008,09,23,09,26,11.10
2008,09,23,09,27,11.10
2008,09,23,09,28,11.10
2008,09,23,09,29,11.10
2008,09,23,09,30,11.10
2008,09,23,09,31,11.00
2008,09,23,09,32,11.00
2008,09,23,09,33,10.90
2008,09,23,09,34,10.90
2008,09,23,09,35,10.90
2008,09,23,09,36,10.90
2008,09,23,09,37,10.90
2008,09,23,09,38,10.90
2008,09,23,09,39,10.80
2008,09,23,09,40,10.80
2008,09,23,09,41,10.80
2008,09,23,09,42,10.80
2008,09,23,09,43,10.80
2008,09,23,09,44,10.90
2008,09,23,09,45,10.90
2008,09,23,09,46,10.90
2008,09,23,09,47,10.90
2008,09,23,09,48,10.90
2008,09,23,09,49,10.80
2008,09,23,09,50,10.90
2008,09,23,09,51,10.90
2008,09,23,09,52,11.00
2008,09,23,09,53,11.00
2008,09,23,09,54,11.10
2008,09,23,09,55,11.10
2008,09,23,09,56,11.10
2008,09,23,09,57,11.10
2008,09,23,09,58,11.20
2008,09,23,09,59,11.20
2008,09,23,10,00,11.20
2008,09,23,10,01,11.10
2008,09,23,10,02,11.10
2008,09,23,10,03,11.10
2008,09,23,10,04,11.10
2008,09,23,10,05,11.20
2008,09,23,10,06,11.20
2008,09,23,10,07,11.20
2008,09,23,10,08,11.20
2008,09,23,10,09,11.20
2008,09,23,10,10,11.30
2008,09,23,10,11,11.30
2008,09,23,10,12,11.40
2008,09,23,10,13,11.50
2008,09,23,10,14,11.50
2008,09,23,10,15,11.60
2008,09,23,10,16,11.50
2008,09,23,10,17,11.60
2008,09,23,10,18,11.60
2008,09,23,10,19,11.70
2008,09,23,10,20,11.70
2008,09,23,10,21,11.70
2008,09,23,10,22,11.70
2008,09,23,10,23,11.70
2008,09,23,10,24,11.70
2008,09,23,10,25,11.60
2008,09,23,10,26,11.60
2008,09,23,10,27,11.70
2008,09,23,10,28,11.60
2008,09,23,10,29,11.60
2008,09,23,10,30,11.60
2008,09,23,10,31,11.60
2008,09,23,10,32,11.60
2008,09,23,10,33,11.60
2008,09,23,10,34,11.60
2008,09,23,10,35,11.60
2008,09,23,10,36,11.70
2008,09,23,10,37,11.70
2008,09,23,10,38,11.70
2008,09,23,10,39,11.80
2008,09,23,10,40,11.80
2008,09,23,10,41,11.80
2008,09,23,10,42,11.80
2008,09,23,10,43,11.80
2008,09,23,10,44,11.80
2008,09,23,10,45,11.80
2008,09,23,10,46,11.80
2008,09,23,10,47,11.90
2008,09,23,10,48,12.00
2008,09,23,10,49,12.10
2008,09,23,10,50,12.10
2008,09,23,10,51,12.20
2008,09,23,10,52,12.20
2008,09,23,10,53,12.30
2008,09,23,10,54,12.30
2008,09,23,10,55,12.40
2008,09,23,10,56,12.40
2008,09,23,10,57,12.40
2008,09,23,10,58,12.50
2008,09,23,10,59,12.50
2008,09,23,11,00,12.50
2008,09,23,11,01,12.40
2008,09,23,11,02,12.40
2008,09,23,11,03,12.30
2008,09,23,11,04,12.40
2008,09,23,11,05,12.50
2008,09,23,11,06,12.50
2008,09,23,11,07,12.40
2008,09,23,11,08,12.40
2008,09,23,11,09,12.40
2008,09,23,11,10,12.40
2008,09,23,11,11,12.40
2008,09,23,11,12,12.30
2008,09,23,11,13,12.40
2008,09,23,11,14,12.40
2008,09,23,11,15,12.40
2008,09,23,11,16,12.50
2008,09,23,11,17,12.50
2008,09,23,11,18,12.40
2008,09,23,11,19,12.40
2008,09,23,11,20,12.40
2008,09,23,11,21,12.30
2008,09,23,11,22,12.30
2008,09,23,11,23,12.30
2008,09,23,11,24,12.30
2008,09,23,11,25,12.30
2008,09,23,11,26,12.30
2008,09,23,11,27,12.30
2008,09,23,11,28,12.30
2008,09,23,11,29,12.50
2008,09,23,11,30,12.50
2008,09,23,11,31,12.60
2008,09,23,11,32,12.70
2008,09,23,11,33,12.70
2008,09,23,11,34,12.60
2008,09,23,11,35,12.60
2008,09,23,11,36,12.60
2008,09,23,11,37,12.50
2008,09,23,11,38,12.50
2008,09,23,11,39,12.40
2008,09,23,11,40,12.40
2008,09,23,11,41,12.40
2008,09,23,11,42,12.40
2008,09,23,11,43,12.50
2008,09,23,11,44,12.50
2008,09,23,11,45,12.50
2008,09,23,11,46,12.40
2008,09,23,11,47,12.50
2008,09,23,11,48,12.60
2008,09,23,11,49,12.60
2008,09,23,11,50,12.60
2008,09,23,11,51,12.70
2008,09,23,11,52,12.70
2008,09,23,11,53,12.80
2008,09,23,11,54,12.80
2008,09,23,11,55,12.80
2008,09,23,11,56,12.80
2008,09,23,11,57,12.80
2008,09,23,11,58,12.80
2008,09,23,11,59,12.80
2008,09,23,12,00,12.80
2008,09,23,12,01,12.90
2008,09,23,12,02,13.00
2008,09,23,12,03,13.00
2008,09,23,12,04,12.90
2008,09,23,12,05,12.90
2008,09,23,12,06,12.90
2008,09,23,12,07,12.90
2008,09,23,12,08,12.90
2008,09,23,12,09,12.90
2008,09,23,12,10,12.90
2008,09,23,12,11,13.00
2008,09,23,12,12,13.10
2008,09,23,12,13,13.20
2008,09,23,12,14,13.20
2008,09,23,12,15,13.20
2008,09,23,12,16,13.20
2008,09,23,12,17,13.20
2008,09,23,12,18,13.20
2008,09,23,12,19,13.30
2008,09,23,12,20,13.40
2008,09,23,12,21,13.30
2008,09,23,12,22,13.30
2008,09,23,12,23,13.30
2008,09,23,12,24,13.30
2008,09,23,12,25,13.40
2008,09,23,12,26,13.50
2008,09,23,12,27,13.50
2008,09,23,12,28,13.60
2008,09,23,12,29,13.60
2008,09,23,12,30,13.60
2008,09,23,12,31,13.60
2008,09,23,12,32,13.60
2008,09,23,12,33,13.50
2008,09,23,12,34,13.50
2008,09,23,12,35,13.60
2008,09,23,12,36,13.60
2008,09,23,12,37,13.60
2008,09,23,12,38,13.60
2008,09,23,12,39,13.60
2008,09,23,12,40,13.60
2008,09,23,12,41,13.50
2008,09,23,12,42,13.30
2008,09,23,12,43,13.30
2008,09,23,12,44,13.30
2008,09,23,12,45,13.30
2008,09,23,12,46,13.30
2008,09,23,12,47,13.30
2008,09,23,12,48,13.30
2008,09,23,12,49,13.30
2008,09,23,12,50,13.30
2008,09,23,12,51,13.40
2008,09,23,12,52,13.40
2008,09,23,12,53,13.50
2008,09,23,12,54,13.50
2008,09,23,12,55,13.50
2008,09,23,12,56,13.40
2008,09,23,12,57,13.40
2008,09,23,12,58,13.40
2008,09,23,12,59,13.40
2008,09,23,13,00,13.40
2008,09,23,13,01,13.30
2008,09,23,13,02,13.30
2008,09,23,13,03,13.30
2008,09,23,13,04,13.20
2008,09,23,13,05,13.20
2008,09,23,13,06,13.40
2008,09,23,13,07,13.40
2008,09,23,13,08,13.50
2008,09,23,13,09,13.40
2008,09,23,13,10,13.40
2008,09,23,13,11,13.40
2008,09,23,13,12,13.40
2008,09,23,13,13,13.40
2008,09,23,13,14,13.40
2008,09,23,13,15,13.40
2008,09,23,13,16,13.40
2008,09,23,13,17,13.30
2008,09,23,13,18,13.30
2008,09,23,13,19,13.30
2008,09,23,13,20,13.30
2008,09,23,13,21,13.20
2008,09,23,13,22,13.20
2008,09,23,13,23,13.20
2008,09,23,13,24,13.20
2008,09,23,13,25,13.20
2008,09,23,13,26,13.30
2008,09,23,13,27,13.40
2008,09,23,13,28,13.40
2008,09,23,13,29,13.40
2008,09,23,13,30,13.30
2008,09,23,13,31,13.30
2008,09,23,13,32,13.30
2008,09,23,13,33,13.30
2008,09,23,13,34,13.40
2008,09,23,13,35,13.40
2008,09,23,13,36,13.40
2008,09,23,13,37,13.40
2008,09,23,13,38,13.40
2008,09,23,13,39,13.30
2008,09,23,13,40,13.30
2008,09,23,13,41,13.30
2008,09,23,13,42,13.30
2008,09,23,13,43,13.40
2008,09,23,13,44,13.50
2008,09,23,13,45,13.60
2008,09,23,13,46,13.60
2008,09,23,13,47,13.60
2008,09,23,13,48,13.70
2008,09,23,13,49,13.80
2008,09,23,13,50,13.90
2008,09,23,13,51,13.90
2008,09,23,13,52,14.00
2008,09,23,13,53,14.10
2008,09,23,13,54,14.20
2008,09,23,13,55,14.20
2008,09,23,13,56,14.20
2008,09,23,13,57,14.20
2008,09,23,13,58,14.20
2008,09,23,13,59,14.20
2008,09,23,14,00,14.20
2008,09,23,14,01,14.20
2008,09,23,14,02,14.20
2008,09,23,14,03,14.20
2008,09,23,14,04,14.20
2008,09,23,14,05,14.10
2008,09,23,14,06,14.10
2008,09,23,14,07,14.10
2008,09,23,14,08,14.10
2008,09,23,14,09,14.20
2008,09,23,14,10,14.20
2008,09,23,14,11,14.30
2008,09,23,14,12,14.30
2008,09,23,14,13,14.30
2008,09,23,14,14,14.40
2008,09,23,14,15,14.50
2008,09,23,14,16,14.50
2008,09,23,14,17,14.40
2008,09,23,14,18,14.50
2008,09,23,14,19,14.50
2008,09,23,14,20,14.40
2008,09,23,14,21,14.30
2008,09,23,14,22,14.20
2008,09,23,14,23,14.20
2008,09,23,14,24,14.20
2008,09,23,14,25,14.20
2008,09,23,14,26,14.30
2008,09,23,14,27,14.50
2008,09,23,14,28,14.60
2008,09,23,14,29,14.70
2008,09,23,14,30,14.70
2008,09,23,14,31,14.60
2008,09,23,14,32,14.60
2008,09,23,14,33,14.70
2008,09,23,14,34,14.90
2008,09,23,14,35,15.00
2008,09,23,14,36,15.00
2008,09,23,14,37,15.00
2008,09,23,14,38,15.00
2008,09,23,14,39,15.00
2008,09,23,14,40,14.90
2008,09,23,14,41,14.90
2008,09,23,14,42,14.90
2008,09,23,14,43,15.00
2008,09,23,14,44,15.00
2008,09,23,14,45,15.00
2008,09,23,14,46,15.00
2008,09,23,14,47,15.00
2008,09,23,14,48,15.00
2008,09,23,14,49,15.00
2008,09,23,14,50,15.00
2008,09,23,14,51,15.00
2008,09,23,14,52,15.00
2008,09,23,14,53,15.00
2008,09,23,14,54,15.00
2008,09,23,14,55,15.00
2008,09,23,14,56,15.00
2008,09,23,14,57,15.00
2008,09,23,14,58,15.00
2008,09,23,14,59,15.00
2008,09,23,15,00,15.00
2008,09,23,15,01,15.00
2008,09,23,15,02,15.10
2008,09,23,15,03,15.20
2008,09,23,15,04,15.20
2008,09,23,15,05,15.20
2008,09,23,15,06,15.30
2008,09,23,15,07,15.30
2008,09,23,15,08,15.30
2008,09,23,15,09,15.30
2008,09,23,15,10,15.20
2008,09,23,15,11,15.30
2008,09,23,15,12,15.30
2008,09,23,15,13,15.40
2008,09,23,15,14,15.50
2008,09,23,15,15,15.60
2008,09,23,15,16,15.70
2008,09,23,15,17,15.70
2008,09,23,15,18,15.80
2008,09,23,15,19,15.80
2008,09,23,15,20,15.80
2008,09,23,15,21,15.70
2008,09,23,15,22,15.60
2008,09,23,15,23,15.50
2008,09,23,15,24,15.50
2008,09,23,15,25,15.40
2008,09,23,15,26,15.50
2008,09,23,15,27,15.50
2008,09,23,15,28,15.60
2008,09,23,15,29,15.60
2008,09,23,15,30,15.60
2008,09,23,15,31,15.50
2008,09,23,15,32,15.40
2008,09,23,15,33,15.40
2008,09,23,15,34,15.40
2008,09,23,15,35,15.50
2008,09,23,15,36,15.50
2008,09,23,15,37,15.40
2008,09,23,15,38,15.40
2008,09,23,15,39,15.30
2008,09,23,15,40,15.20
2008,09,23,15,41,15.20
2008,09,23,15,42,15.20
2008,09,23,15,43,15.10
2008,09,23,15,44,15.10
2008,09,23,15,45,15.10
2008,09,23,15,46,15.10
2008,09,23,15,47,15.10
2008,09,23,15,48,15.10
2008,09,23,15,49,15.10
2008,09,23,15,50,15.00
2008,09,23,15,51,15.00
2008,09,23,15,52,15.00
2008,09,23,15,53,15.00
2008,09,23,15,54,15.00
2008,09,23,15,55,15.00
2008,09,23,15,56,15.00
2008,09,23,15,57,15.00
2008,09,23,15,58,15.00
2008,09,23,15,59,15.00
2008,09,23,16,00,15.00
2008,09,23,16,01,15.10
2008,09,23,16,02,15.10
2008,09,23,16,03,15.10
2008,09,23,16,04,15.00
2008,09,23,16,05,15.00
2008,09,23,16,06,15.00
2008,09,23,16,07,15.00
2008,09,23,16,08,15.00
2008,09,23,16,09,15.00
2008,09,23,16,10,15.00
2008,09,23,16,11,15.00
2008,09,23,16,12,15.00
2008,09,23,16,13,15.00
2008,09,23,16,14,15.00
2008,09,23,16,15,15.00
2008,09,23,16,16,15.00
2008,09,23,16,17,15.00
2008,09,23,16,18,15.00
2008,09,23,16,19,15.00
2008,09,23,16,20,15.00
2008,09,23,16,21,15.10
2008,09,23,16,22,15.10
2008,09,23,16,23,15.10
2008,09,23,16,24,15.10
2008,09,23,16,25,15.10
2008,09,23,16,26,15.10
2008,09,23,16,27,15.10
2008,09,23,16,28,15.00
2008,09,23,16,29,15.00
2008,09,23,16,30,15.00
2008,09,23,16,31,15.00
2008,09,23,16,32,15.00
2008,09,23,16,33,15.00
2008,09,23,16,34,15.00
2008,09,23,16,35,15.10
2008,09,23,16,36,15.20
2008,09,23,16,37,15.10
2008,09,23,16,38,15.10
2008,09,23,16,39,15.00
2008,09,23,16,40,15.00
2008,09,23,16,41,15.00
2008,09,23,16,42,15.00
2008,09,23,16,43,15.00
2008,09,23,16,44,15.00
2008,09,23,16,45,15.00
2008,09,23,16,46,15.10
2008,09,23,16,47,15.10
2008,09,23,16,48,15.10
2008,09,23,16,49,15.10
2008,09,23,16,50,15.10
2008,09,23,16,51,15.00
2008,09,23,16,52,15.00
2008,09,23,16,53,15.10
2008,09,23,16,54,15.10
2008,09,23,16,55,15.10
2008,09,23,16,56,15.20
2008,09,23,16,57,15.20
2008,09,23,16,58,15.20
2008,09,23,16,59,15.20
2008,09,23,17,00,15.20
2008,09,23,17,01,15.20
2008,09,23,17,02,15.20
2008,09,23,17,03,15.10
2008,09,23,17,04,15.00
2008,09,23,17,05,15.00
2008,09,23,17,06,15.00
2008,09,23,17,07,15.00
2008,09,23,17,08,15.00
2008,09,23,17,09,15.00
2008,09,23,17,10,15.10
2008,09,23,17,11,15.20
2008,09,23,17,12,15.20
2008,09,23,17,13,15.10
2008,09,23,17,14,15.10
2008,09,23,17,15,15.00
2008,09,23,17,16,15.00
2008,09,23,17,17,15.00
2008,09,23,17,18,15.00
2008,09,23,17,19,15.00
2008,09,23,17,20,15.00
2008,09,23,17,21,15.00
2008,09,23,17,22,15.00
2008,09,23,17,23,15.00
2008,09,23,17,24,15.00
2008,09,23,17,25,15.00
2008,09,23,17,26,15.00
2008,09,23,17,27,15.00
2008,09,23,17,28,15.00
2008,09,23,17,29,15.00
2008,09,23,17,30,15.00
2008,09,23,17,31,15.10
2008,09,23,17,32,15.00
2008,09,23,17,33,15.10
2008,09,23,17,34,15.10
2008,09,23,17,35,15.10
2008,09,23,17,36,15.10
2008,09,23,17,37,15.20
2008,09,23,17,38,15.20
2008,09,23,17,39,15.20
2008,09,23,17,40,15.10
2008,09,23,17,41,15.00
2008,09,23,17,42,15.00